sat.trackr.live / text

‹ back to catalog

STARLINK-37248

NORAD 68527 · 2026-068V

PAYLOAD ACTIVE UNKNOWN

§ Identity

Operator
Country
US
Launch date
2026-03-30
Launch site
AFETR
Launch vehicle
Mass (kg)
RCS (m²)

Purposes: comms

External: N2YO · Heavens-Above · Gunter

§ Orbital elements

Epoch: 2026-05-25T02:55:39.110880Z

Period
93.85 min
Inclination
53.1584°
Eccentricity
0.0000900
Mean motion
15.34400004 rev/d
Perigee alt
462.1 km
Apogee alt
463.3 km
Semi-major
6,840.8 km
B*
8.0019e-4
RAAN
130.8781°
Arg perigee
52.8833°
Mean anomaly
307.2252°
Rev number
869

§ Raw data

STARLINK-372481 68527U 26068V   26145.12198045  .00026756  00000+0  80019-3 0  99942 68527  53.1584 130.8781 0000900  52.8833 307.2252 15.34400004  8697

JSON: /api/v1/satellites/68527 · /tle

For live sub-satellite position, see the globe view (requires WebGL).

§ Visibility from observer

Set your observer location to see the next 7 days of passes ≥ 10°. The values pass through the URL so the page stays shareable.

No JS? Fill the form by hand. The geolocation button needs JavaScript.